Regional Weather Roundup
Issued by NWS State College, PA

Home | Current Version | Previous Version | Text Only | Print | Product List | Glossary Off
Versions: 1 2 3 4 5 6 7 8 9 10 11 12 13 14 15 16 17 18 19 20 21 22 23 24 25 26 27 28 29 30 31 32 33 34 35 36 37 38 39 40 41 42 43 44 45 46 47 48 49 50

000
ASUS41 KCTP 260803
RWRCTP

REGIONAL WEATHER ROUNDUP
NATIONAL WEATHER SERVICE STATE COLLEGE PA
400 AM EDT SUN APR 26 2015

Note: "fair" indicates few or no clouds below 12,000 feet with no
significant weather and/or obstructions to visibility.

* = STATION THAT DOES NOT REPORT PRECIPITATION /E.G. RAIN...SNOW...ETC/
    THUNDER OR FOG.

PAZ002>004-007>009-013>016-020>023-029>032-260900-
WESTERN PENNSYLVANIA

CITY           SKY/WX    TMP DP  RH WIND       PRES   REMARKS
ERIE           CLEAR     36  26  67 E5        29.77S
MEADVILLE      CLEAR     35  24  64 NE6       29.74R
FRANKLIN*      CLEAR     34  21  60 N6        29.74R
NEW CASTLE     FAIR      40  28  62 N8        29.73R
BEAVER COUNTY  NOT AVBL
BUTLER*        CLOUDY    43  27  52 E10       29.71S
PITTSBURGH INT CLOUDY    44  27  51 NE12      29.69R
PITTSBURGH     CLOUDY    42  31  64 N3        29.67S
INDIANA*       CLOUDY    43  27  52 E7        29.73S
LATROBE        CLOUDY    41  37  87 CALM      29.70S
WASHINGTON CO* CLOUDY    41  37  87 CALM      29.69S
$$

PAZ004>006-010>012-017>019-024>028-033>037-041-042-045-046-049>053-260900-
CENTRAL PENNSYLVANIA

CITY           SKY/WX    TMP DP  RH WIND       PRES   REMARKS
BRADFORD       CLEAR     31  23  72 CALM      29.72R
DUBOIS         CLEAR     37  25  61 E5        29.70R
CLEARFIELD     CLEAR     34  25  69 N5        29.72R
JOHNSTOWN      MOCLDY    38  25  59 NE8       29.66R
ALTOONA        MOCLDY    39  28  64 N3        29.70R
STATE COLLEGE  CLEAR     37  26  63 NE5       29.71S
WILLIAMSPORT   CLEAR     37  27  67 CALM      29.73S
SELINSGROVE    PTCLDY    35  28  75 CALM      29.73R
FT INDIANTOWN  CLOUDY    41  27  57 N3        29.69S
CAPITAL CITY   PTCLDY    41  32  70 W6        29.70S
HARRISBURG     MOCLDY    43  32  65 NW9       29.70R
YORK           MOCLDY    40  34  79 CALM      29.69R
$$

PAZ038>040-043-044-047-048-054-055-060>062-067>071-260900-
EASTERN PENNSYLVANIA

CITY           SKY/WX    TMP DP  RH WIND       PRES   REMARKS
SCRANTON       CLEAR     32  25  75 SE3       29.69S
MOUNT POCONO   CLEAR     35  24  64 N8        29.65F
ALLENTOWN      CLEAR     42  26  53 N3        29.69S
QUAKERTOWN*    SUNNY     41  27  56 N3        29.68S
READING        CLEAR     38  28  67 NW7       29.68S
LANCASTER      PTCLDY    39  29  67 W3        29.68S
COATESVILLE    SUNNY     43  28  56 N7        29.67S
POTTSTOWN      CLEAR     43  26  51 N6        29.68S
BLUE BELL      CLEAR     43  30  61 CALM      29.66S
DOYLESTOWN     CLEAR     40  26  57 NE3       29.66S
WILLOW GROVE   NOT AVBL
NORTH PHILA    CLEAR     45  26  47 N7        29.68S
PHILADELPHIA   PTCLDY    47  29  49 NE9       29.66F
$$



USA.gov is the U.S. government's official web portal to all federal, state and local government web resources and services.